Simultaneous Nadir Overpasses (SNOs) Predictions

Prediction of SNOs between GOES-14 and NOAA-20 Satellite Orbit:

Table of predicted SNOs for the next 14.0 days since TLE Epoch: 10/10/2020
Index Date Time (GOES-14) GOES-14 Lat,Lon NOAA-20 Lat,Lon Distance(km) Time Diff (sec)
1 10/10/2020 08:25:52 0.24,-104.38 0.37,-104.94 63.76 80
2 10/11/2020 08:04:28 0.25,-104.36 -0.61,-100.40 450.91 80
3 10/12/2020 20:26:26 -0.22,-104.33 -0.53,-105.72 158.03 80
4 10/13/2020 20:10:21 -0.23,-104.34 0.46,-101.19 358.78 80
5 10/15/2020 08:32:11 0.20,-104.38 0.69,-106.47 239.01 80
6 10/16/2020 08:10:46 0.22,-104.36 -0.30,-101.93 275.89 80
7 10/17/2020 20:32:45 -0.19,-104.30 -0.83,-107.26 336.60 80
8 10/18/2020 20:16:40 -0.20,-104.30 0.16,-102.72 180.23 80
9 10/20/2020 08:38:29 0.17,-104.37 0.99,-108.00 414.17 80
10 10/21/2020 08:17:05 0.19,-104.35 0.01,-103.47 100.50 80
11 10/23/2020 20:22:59 -0.17,-104.26 -0.14,-104.26 3.22 80
